Location: Newark
(52.3500°N, 175.9667°E)
Time: 21:01:01
(UTC+00:00)

Transit 4A - Pass Details

Date: 21 April 2021
Orbit: 871 x 974 km, 66.8° (Epoch: 16 May)

Event Time Altitude Azimuth Distance (km) Brightness Sun altitude
Rises 18:31:30 0° 319° (NW) 3,543 10.6 12.1°
Reaches altitude 10° 18:34:09 10° 325° (NW) 2,584 10.0 12.5°
Maximum altitude 18:39:54 47° 39° (NE) 1,167 9.1 13.4°
Drops below altitude 10° 18:45:31 10° 113° (ESE) 2,526 11.6 14.3°
Sets 18:48:05 0° 119° (ESE) 3,456 12.0 14.6°
